1501077600.98,41879,20.19,73100.0,7.43,2.59,2.55,0,*72
1501077602.24,41880,20.19,73098.0,7.47,3.03,3.03,0,*7C
1501077603.44,41881,20.19,73096.5,7.49,2.95,2.91,0,*77
1501077604.7,41882,20.19,73098.0,7.49,2.47,2.47,0,*70
1501077605.88,41883,20.19,73096.5,7.51,2.95,2.99,0,*74
1501077607.1,41884,20.19,73098.3,7.51,3.11,3.23,0,*7E
1501077608.31,41885,20.19,73098.3,7.53,3.25,3.25,0,*7C
1501077609.57,41886,20.19,73098.8,7.53,2.89,2.89,0,*7F
1501077610.84,41887,20.19,73100.5,7.53,3.15,3.19,0,*72
1501077612.07,41888,20.19,73100.3,7.55,3.15,3.19,0,*7B
1501077613.3,41889,20.19,73100.3,7.59,3.19,3.33,0,*72
1501077614.52,41890,20.19,73102.0,7.57,3.53,3.55,0,*7A
1501077615.75,41891,20.19,73098.0,7.55,3.15,3.19,0,*73
1501077616.96,41892,20.19,73100.5,7.59,3.07,2.95,0,*7A
1501077618.16,41893,20.19,73100.8,7.59,2.61,2.55,0,*76
1501077619.39,41894,20.19,73098.0,7.59,2.77,2.73,0,*72
1501077620.65,41895,20.19,73100.0,7.61,3.07,3.11,0,*7B
1501077621.9,41896,20.19,73096.3,7.61,2.85,2.77,0,*72
1501077623.11,41897,20.19,73100.5,7.61,2.65,2.61,0,*7A
1501077624.34,41898,20.19,73098.0,7.61,2.27,2.25,0,*73
1501077625.56,41899,20.19,73098.0,7.61,2.65,2.61,0,*74
1501077626.78,41900,20.19,73096.3,7.61,2.25,2.27,0,*73
1501077628.01,41901,20.19,73098.0,7.63,2.81,2.81,0,*72
1501077629.25,41902,20.19,73098.8,7.63,1.97,1.85,0,*72
1501077630.45,41903,20.19,73098.0,7.63,1.85,1.83,0,*76
1501077631.67,41904,20.19,73098.8,7.63,2.55,2.47,0,*74
1501077632.9,41905,20.19,73100.0,7.63,2.69,2.59,0,*75
1501077634.15,41906,20.19,73098.0,7.61,2.55,2.43,0,*70
1501077635.35,41907,20.19,73102.5,7.63,2.39,2.27,0,*7B
1501077636.61,41908,20.19,73098.0,7.61,1.43,1.21,0,*7D
1501077637.86,41909,20.19,73096.0,7.61,1.63,1.63,0,*78
1501077639.08,41910,20.19,73100.0,7.61,1.83,1.71,0,*7D
1501077640.31,41911,20.19,73100.5,7.59,2.05,2.01,0,*7E
1501077641.51,41912,20.19,73096.8,7.59,2.27,2.25,0,*7B
1501077642.75,41913,20.19,73098.3,7.61,2.27,2.17,0,*70
1501077643.95,41914,20.19,73100.8,7.59,2.51,2.35,0,*7D
1501077645.18,41915,20.19,73102.0,7.59,2.51,2.39,0,*70
1501077646.41,41916,20.19,73102.5,7.59,2.77,2.73,0,*79
1501077647.64,41917,20.19,73100.0,7.61,2.77,2.65,0,*74
1501077648.89,41918,20.19,73098.0,7.61,2.73,2.73,0,*78
1501077650.11,41919,20.19,73102.5,7.63,2.81,2.69,0,*7D
1501077651.35,41920,20.19,73102.0,7.63,2.17,2.09,0,*7E
1501077652.54,41921,20.19,73100.3,7.63,2.31,2.21,0,*71
1501077653.8,41922,20.19,73102.5,7.61,2.13,2.05,0,*76
1501077655.06,41923,20.19,73100.8,7.61,2.25,2.13,0,*75
1501077656.28,41924,20.19,73102.0,7.61,1.55,1.41,0,*72
1501077657.52,41925,20.19,73100.5,7.59,1.33,1.17,0,*7B
1501077658.74,41926,20.19,73100.8,7.61,1.63,1.41,0,*75
1501077659.94,41927,20.19,73106.0,7.59,1.79,1.43,0,*76
1501077661.13,41928,20.19,73102.5,7.59,1.71,1.41,0,*73
1501077662.39,41929,20.19,73104.5,7.57,1.25,0.91,0,*41
1501077663.62,41930,20.19,73106.0,7.57,0.75,0.33,0,*75
1501077664.84,41931,20.19,73106.8,7.55,0.13,-0.27,0,*5E
1501077666.02,41932,20.19,73102.8,7.51,-0.03,-0.37,0,*44
1501077667.22,41933,20.19,73100.8,7.51,0.25,-0.19,0,*50
1501077668.45,41934,20.19,73106.3,7.49,1.01,0.71,0,*4A
1501077669.7,41935,20.19,73106.8,7.47,1.55,1.37,0,*77
1501077670.95,41936,20.19,73100.5,7.49,1.89,1.55,0,*7F
1501077672.2,41937,20.19,73102.8,7.47,1.67,1.17,0,*76
1501077673.45,41938,20.19,73106.3,7.49,2.01,1.47,0,*71
1501077674.71,41939,20.19,73104.8,7.49,1.85,1.29,0,*77
1501077675.93,41940,20.19,73106.3,7.49,2.27,1.89,0,*78
1501077677.19,41941,20.19,73104.3,7.49,1.97,1.63,0,*75
1501077678.42,41942,20.19,73106.8,7.49,2.01,1.79,0,*71
1501077679.63,41943,20.19,73108.0,7.49,1.75,1.79,0,*70
1501077680.88,41944,20.19,73106.0,7.49,2.13,2.13,0,*7B
1501077682.11,41945,20.19,73106.0,7.51,2.39,2.47,0,*7A
1501077683.32,41946,20.19,73104.3,7.53,2.91,2.99,0,*7A
1501077684.56,41947,20.19,73100.8,7.53,2.91,2.89,0,*7A
1501077685.76,41948,20.19,73098.3,7.57,2.91,2.95,0,*7C
1501077686.96,41949,20.19,73098.0,7.57,2.35,2.35,0,*79
1501077688.17,41950,20.19,73098.0,7.55,2.55,2.65,0,*70
1501077689.38,41951,20.19,73096.5,7.55,2.59,2.65,0,*7D
1501077690.64,41952,20.19,73096.3,7.57,2.47,2.51,0,*74
1501077691.9,41953,20.19,73098.8,7.57,2.47,2.51,0,*75
1501077693.08,41954,20.19,73098.8,7.55,2.27,2.31,0,*70
1501077694.31,41955,20.19,73098.5,7.55,1.97,2.05,0,*7E
1501077695.55,41956,20.19,73100.0,7.55,1.37,1.33,0,*71
1501077696.82,41957,20.19,73100.5,7.53,1.37,1.37,0,*72
1501077698.01,41958,20.19,73102.5,7.51,1.43,1.41,0,*7D
1501077699.24,41959,20.19,73102.3,7.51,1.55,1.51,0,*7A
1501077700.51,41960,20.19,73104.3,7.49,1.29,1.17,0,*70
1501077701.76,41961,20.19,73102.3,7.47,1.55,1.55,0,*72
1501077703.0,41962,20.19,73104.8,7.47,1.67,1.63,0,*75
1501077704.25,41963,20.19,73100.8,7.47,2.01,1.97,0,*7C
1501077705.47,41964,20.19,73100.0,7.41,2.21,2.09,0,*7B
1501077706.72,41965,20.19,73104.0,7.43,2.43,2.25,0,*72
1501077707.97,41966,20.19,73104.5,7.43,1.97,1.93,0,*75
1501077709.22,41967,20.19,73106.5,7.43,1.97,1.93,0,*74
1501077710.39,41968,20.19,73104.5,7.41,1.83,1.75,0,*74
1501077711.64,41969,20.19,73104.8,7.43,2.21,2.17,0,*7B
1501077712.84,41970,20.19,73102.5,7.41,1.93,1.83,0,*75
1501077714.01,41971,20.19,73104.3,7.41,2.35,2.31,0,*71
1501077715.21,41972,20.19,73100.0,7.41,2.65,2.59,0,*79
1501077716.43,41973,20.19,73102.8,7.41,2.55,2.55,0,*77
1501077717.62,41974,20.19,73106.3,7.41,2.25,2.31,0,*75
1501077718.79,41975,20.19,73100.8,7.41,2.35,2.35,0,*71
1501077719.99,41976,20.19,73100.0,7.41,2.31,2.25,0,*77
1501077721.23,41977,20.19,73100.5,7.41,2.17,2.17,0,*73
1501077722.45,41978,20.19,73102.3,7.41,2.09,2.09,0,*7C
1501077723.65,41979,20.19,73100.5,7.39,2.27,2.27,0,*72
1501077724.9,41980,20.19,73106.8,7.39,1.93,1.89,0,*7F
1501077726.13,41981,20.19,73102.0,7.37,1.29,1.29,0,*7B
1501077727.38,41982,20.19,73100.8,7.35,1.43,1.43,0,*7A
1501077728.61,41983,20.19,73104.3,7.33,1.71,1.63,0,*7E
1501077729.84,41984,20.19,73104.5,7.33,2.13,2.09,0,*71
1501077731.06,41985,20.19,73104.5,7.33,2.13,2.21,0,*7A
1501077732.29,41986,20.19,73106.0,7.33,2.13,2.21,0,*79
1501077733.49,41987,20.19,73104.3,7.33,2.25,2.31,0,*7C
1501077734.73,41988,20.19,73110.3,7.31,2.21,2.21,0,*74
1501077735.94,41989,20.19,73104.0,7.29,2.27,2.39,0,*73
1501077737.17,41990,20.19,73106.3,7.29,2.05,2.09,0,*78
1501077738.42,41991,20.19,73106.0,7.31,2.43,2.55,0,*7B
1501077739.65,41992,20.19,73106.3,7.33,2.55,2.55,0,*7D
1501077740.87,41993,20.19,73108.0,7.31,1.79,1.71,0,*76
1501077742.11,41994,20.19,73108.0,7.29,2.43,2.51,0,*73
1501077743.32,41995,20.19,73106.8,7.29,2.91,2.89,0,*78
1501077744.54,41996,20.19,73106.5,7.29,2.85,2.85,0,*72
1501077745.74,41997,20.19,73108.8,7.29,2.21,2.27,0,*75
1501077746.98,41998,20.19,73110.8,7.29,2.43,2.51,0,*7F
1501077748.2,41999,20.19,73106.5,7.27,2.47,2.35,0,*76
1501077749.44,42000,20.19,73108.8,7.29,2.39,2.43,0,*7A
1501077750.67,42001,20.19,73108.5,7.29,2.39,2.43,0,*7B
1501077751.9,42002,20.19,73104.3,7.29,2.77,2.73,0,*71
1501077753.13,42003,20.19,73110.8,7.27,2.61,2.51,0,*79
1501077754.36,42004,20.19,73110.3,7.25,2.47,2.47,0,*7F
1501077755.59,42005,20.19,73110.8,7.25,2.51,2.47,0,*79
1501077756.76,42006,20.19,73104.5,7.25,2.35,2.27,0,*7E
1501077757.99,42007,20.19,73110.0,7.27,2.39,2.35,0,*72
1501077759.23,42008,20.19,73104.5,7.25,2.17,2.17,0,*73
1501077760.44,42009,20.19,73110.8,7.25,2.59,2.61,0,*79
1501077761.64,42010,20.19,73106.8,7.25,2.61,2.59,0,*71
1501077762.87,42011,20.19,73108.0,7.21,2.55,2.55,0,*7F
1501077764.1,42012,20.19,73108.5,7.25,2.59,2.51,0,*70
1501077765.27,42013,20.19,73106.5,7.25,2.35,2.35,0,*79
1501077766.48,42014,20.19,73108.0,7.21,2.31,2.25,0,*7F
1501077767.66,42015,20.19,73106.3,7.21,2.35,2.35,0,*7B
1501077768.89,42016,20.19,73108.8,7.21,2.81,2.85,0,*7C
1501077770.12,42017,20.19,73106.5,7.21,2.77,2.77,0,*79
1501077771.34,42018,20.19,73108.0,7.21,2.77,2.85,0,*7B
1501077772.58,42019,20.19,73110.0,7.21,2.77,2.81,0,*7E
1501077773.81,42020,20.19,73108.0,7.21,2.77,2.81,0,*74
1501077775.06,42021,20.19,73110.3,7.19,2.73,2.77,0,*73
1501077776.26,42022,20.19,73110.0,7.21,2.55,2.65,0,*7C
1501077777.49,42023,20.19,73110.8,7.19,2.61,2.55,0,*72
1501077778.74,42024,20.19,73108.8,7.19,2.77,2.73,0,*76
1501077779.96,42025,20.19,73110.3,7.21,2.55,2.55,0,*78
1501077781.17,42026,20.19,73108.0,7.21,2.27,2.21,0,*7D
1501077782.4,42027,20.19,73108.5,7.21,2.25,2.25,0,*7A
1501077783.65,42028,20.19,73106.8,7.19,2.17,2.09,0,*71
1501077784.86,42029,20.19,73110.3,7.19,2.61,2.61,0,*7F
1501077786.11,42030,20.19,73108.0,7.19,2.43,2.43,0,*77
1501077787.37,42031,20.19,73106.8,7.19,2.43,2.43,0,*76
1501077788.62,42032,20.19,73108.0,7.19,2.77,2.73,0,*71
1501077789.82,42033,20.19,73106.0,7.17,2.99,2.89,0,*7B
1501077791.06,42034,20.19,73108.5,7.17,2.81,2.89,0,*75
1501077792.28,42035,20.19,73104.5,7.17,2.89,2.81,0,*74
1501077793.51,42036,20.19,73104.3,7.17,2.81,2.73,0,*72
1501077794.69,42037,20.19,73106.5,7.17,2.99,2.91,0,*76
1501077795.95,42038,20.19,73106.8,7.19,3.11,3.03,0,*7C
1501077797.17,42039,20.19,73108.5,7.19,2.99,2.89,0,*7F
1501077798.41,42040,20.19,73106.5,7.19,2.91,2.81,0,*71
1501077799.66,42041,20.19,73104.0,7.19,2.89,2.77,0,*70
1501077800.88,42042,20.19,73106.8,7.19,2.77,2.65,0,*71
1501077802.14,42043,20.19,73104.5,7.19,2.51,2.43,0,*70
1501077803.37,42044,20.19,73104.3,7.19,2.65,2.51,0,*73
1501077804.57,42045,20.19,73106.5,7.17,2.39,2.27,0,*74
1501077805.78,42046,20.19,73106.5,7.17,2.61,2.43,0,*78
1501077806.98,42047,20.19,73106.3,7.17,2.61,2.39,0,*74
1501077808.19,42048,20.19,73104.8,7.19,2.65,2.61,0,*7C
1501077809.4,42049,20.19,73104.8,7.17,2.99,2.89,0,*76
1501077810.66,42050,20.19,73106.8,7.19,3.11,2.81,0,*79
1501077811.86,42051,20.19,73106.0,7.17,2.99,2.89,0,*7F
1501077813.1,42052,20.19,73104.8,7.17,3.03,2.81,0,*76
1501077814.3,42053,20.19,73104.5,7.17,3.03,2.91,0,*76
1501077815.53,42054,20.19,73106.5,7.19,2.91,2.81,0,*74
1501077816.76,42055,20.19,73104.8,7.19,2.91,2.77,0,*7C
1501077818.01,42056,20.19,73104.3,7.19,2.89,2.77,0,*76
1501077819.24,42057,20.19,73102.5,7.19,2.77,2.65,0,*75
1501077820.47,42058,20.19,73104.0,7.19,2.65,2.43,0,*7D
1501077821.7,42059,20.19,73106.3,7.21,2.85,2.77,0,*7E
1501077822.92,42060,20.19,73100.3,7.21,2.77,2.69,0,*76
1501077824.15,42061,20.19,73106.0,7.21,2.55,2.59,0,*74
1501077825.38,42062,20.19,73104.3,7.19,2.77,2.65,0,*73
1501077826.59,42063,20.19,73102.0,7.21,2.77,2.65,0,*79
1501077827.79,42064,20.19,73106.0,7.21,2.91,2.85,0,*78
1501077829.02,42065,20.19,73102.5,7.19,2.91,2.89,0,*7E
1501077830.28,42066,20.19,73102.5,7.19,3.23,3.03,0,*76
1501077831.51,42067,20.19,73102.5,7.21,3.19,3.15,0,*72
1501077832.77,42068,20.19,73100.5,7.19,3.11,3.03,0,*79
1501077833.98,42069,20.19,73104.5,7.21,3.25,3.15,0,*73
1501077835.21,42070,20.19,73104.3,7.25,3.07,3.07,0,*7C
1501077836.43,42071,20.19,73102.8,7.25,3.19,3.11,0,*75
1501077837.66,42072,20.19,73106.0,7.25,2.69,2.69,0,*7E
1501077838.89,42073,20.19,73106.0,7.25,2.47,2.59,0,*70
1501077840.12,42074,20.19,73104.5,7.21,2.43,2.47,0,*78
1501077841.32,42075,20.19,73104.3,7.21,2.35,2.43,0,*7C
1501077842.55,42076,20.19,73106.3,7.21,2.21,2.25,0,*7A
1501077843.75,42077,20.19,73104.5,7.19,2.27,2.31,0,*73
1501077845.0,42078,20.19,73106.5,7.19,2.39,2.43,0,*76
1501077846.25,42079,20.19,73100.3,7.19,2.73,2.73,0,*7A
1501077847.45,42080,20.19,73106.3,7.19,2.91,2.99,0,*74
1501077848.65,42081,20.19,73106.8,7.21,2.95,3.07,0,*7C
1501077849.91,42082,20.19,73100.3,7.19,3.11,3.03,0,*7D
1501077851.17,42083,20.19,73106.5,7.19,3.03,3.03,0,*7F
1501077852.37,42084,20.19,73106.8,7.19,2.91,2.91,0,*78
1501077853.57,42085,20.19,73102.5,7.17,2.39,2.31,0,*7F
1501077854.8,42086,20.19,73106.8,7.17,2.55,2.51,0,*70
1501077856.0,42087,20.19,73106.0,7.17,2.65,2.77,0,*76
1501077857.21,42088,20.19,73106.5,7.15,2.27,2.27,0,*78
1501077858.43,42089,20.19,73104.8,7.17,2.55,2.55,0,*7B
1501077859.66,42090,20.19,73102.3,7.17,2.73,2.73,0,*73
1501077860.9,42091,20.19,73106.3,7.15,2.73,2.69,0,*7B
1501077862.16,42092,20.19,73102.8,7.15,2.73,2.73,0,*73
1501077863.42,42093,20.19,73104.3,7.15,2.59,2.51,0,*7A
1501077864.68,42094,20.19,73104.3,7.15,2.51,2.51,0,*75
1501077865.94,42095,20.19,73106.0,7.15,2.69,2.73,0,*7F
1501077867.19,42096,20.19,73104.0,7.15,2.77,2.85,0,*7A
1501077868.41,42097,20.19,73104.3,7.13,2.77,2.77,0,*70
1501077869.61,42098,20.19,73106.0,7.13,2.89,2.95,0,*72
1501077870.83,42099,20.19,73106.5,7.13,2.77,2.85,0,*73
1501077872.01,42100,20.19,73106.0,7.13,2.61,2.61,0,*7F
1501077873.26,42101,20.19,73104.3,7.11,2.73,2.81,0,*71
1501077874.46,42102,20.19,73106.8,7.13,2.61,2.69,0,*75
1501077875.72,42103,20.19,73104.3,7.11,2.59,2.59,0,*7E
1501077876.96,42104,20.19,73104.3,7.11,2.69,2.73,0,*72
1501077878.16,42105,20.19,73102.0,7.11,2.95,2.91,0,*7C
1501077879.39,42106,20.19,73106.8,7.11,2.59,2.65,0,*74
1501077880.64,42107,20.19,73106.0,7.11,2.59,2.55,0,*76
1501077881.87,42108,20.19,73106.3,7.11,2.65,2.55,0,*76
1501077883.12,42109,20.19,73106.8,7.11,2.59,2.47,0,*7B
1501077884.3,42110,20.19,73106.0,7.09,2.65,2.61,0,*71
1501077885.53,42111,20.19,73106.8,7.07,2.61,2.55,0,*7D
1501077886.76,42112,20.19,73106.8,7.09,2.51,2.55,0,*73
1501077887.98,42113,20.19,73106.0,7.09,2.89,2.81,0,*7E
1501077889.21,42114,20.19,73102.3,7.09,2.89,2.89,0,*71
1501077890.43,42115,20.19,73106.3,7.09,2.77,2.69,0,*7F
1501077891.69,42116,20.19,73100.8,7.07,2.89,2.77,0,*7C
1501077892.89,42117,20.19,73104.0,7.09,2.65,2.51,0,*75
1501077894.1,42118,20.19,73106.0,7.09,2.61,2.51,0,*7E
1501077895.3,42119,20.19,73106.0,7.09,3.03,2.91,0,*76
1501077896.56,42120,20.19,73106.8,7.07,3.23,3.03,0,*7A
1501077897.79,42121,20.19,73106.8,7.11,3.25,3.07,0,*7E
1501077899.04,42122,20.19,73104.0,7.11,3.07,3.03,0,*79
1501077900.28,42123,20.19,73104.3,7.09,3.23,3.03,0,*77
1501077901.53,42124,20.19,73102.8,7.11,3.15,3.07,0,*78
1501077902.76,42125,20.19,73106.5,7.13,3.11,3.07,0,*7F
1501077904.01,42126,20.19,73102.0,7.11,3.15,3.19,0,*75
1501077905.26,42127,20.19,73104.5,7.11,3.19,3.15,0,*74
1501077906.49,42128,20.19,73106.0,7.13,3.11,3.11,0,*75
1501077907.67,42129,20.19,73104.0,7.13,2.99,2.95,0,*78
1501077908.9,42130,20.19,73106.3,7.15,3.11,2.99,0,*7B
1501077910.17,42131,20.19,73106.5,7.15,3.07,2.89,0,*7C
1501077911.37,42132,20.19,73102.8,7.13,2.95,2.85,0,*7F
1501077912.58,42133,20.19,73102.0,7.13,2.73,2.69,0,*74
1501077913.79,42134,20.19,73104.5,7.13,2.61,2.59,0,*73
1501077915.01,42135,20.19,73102.8,7.13,2.01,1.93,0,*71
1501077916.21,42136,20.19,73100.5,7.13,2.27,2.25,0,*78
1501077917.44,42137,20.19,73100.0,7.13,2.47,2.47,0,*7B
1501077918.67,42138,20.19,73104.8,7.13,2.77,2.77,0,*74
1501077919.87,42139,20.19,73106.0,7.11,2.91,2.91,0,*77
1501077921.07,42140,20.19,73102.5,7.13,3.07,2.99,0,*7D
1501077922.3,42141,20.19,73104.5,7.13,2.89,2.89,0,*7A
1501077923.52,42142,20.19,73100.8,7.13,3.19,3.11,0,*71
1501077924.76,42143,20.19,73102.5,7.15,3.07,2.95,0,*74
1501077926.01,42144,20.19,73106.5,7.15,2.73,2.73,0,*79
1501077927.22,42145,20.19,73102.8,7.15,2.95,2.95,0,*78
1501077928.42,42146,20.19,73102.8,7.15,2.99,2.99,0,*7B
1501077929.65,42147,20.19,73102.8,7.17,3.11,3.03,0,*7B
1501077930.9,42148,20.19,73106.5,7.15,2.73,2.77,0,*71
1501077932.14,42149,20.19,73106.8,7.15,2.61,2.51,0,*77
1501077933.39,42150,20.19,73104.3,7.15,2.69,2.69,0,*7C
1501077934.65,42151,20.19,73100.8,7.15,2.59,2.55,0,*71
1501077935.88,42152,20.19,73104.0,7.15,2.69,2.61,0,*76
1501077937.08,42153,20.19,73102.5,7.15,2.35,2.27,0,*7C
1501077938.34,42154,20.19,73102.0,7.15,2.25,2.13,0,*7D
1501077939.59,42155,20.19,73104.8,7.15,2.13,1.93,0,*72
1501077940.84,42156,20.19,73102.3,7.15,2.01,1.93,0,*72
1501077942.1,42157,20.19,73102.8,7.15,2.47,2.47,0,*7B
1501077943.3,42158,20.19,73102.5,7.13,2.27,2.25,0,*70
1501077944.5,42159,20.19,73100.8,7.13,2.39,2.35,0,*7F
1501077945.71,42160,20.19,73100.3,7.13,2.69,2.61,0,*71
1501077946.91,42161,20.19,73100.5,7.13,2.95,2.85,0,*79
1501077948.13,42162,20.19,73100.8,7.13,2.77,2.73,0,*7F
1501077949.34,42163,20.19,73100.0,7.13,2.61,2.51,0,*79
1501077950.57,42164,20.19,73102.3,7.13,2.89,2.89,0,*7D
1501077951.77,42165,20.19,73098.8,7.13,2.95,2.89,0,*71
1501077953.02,42166,20.19,73102.5,7.15,2.77,2.73,0,*7D
1501077954.25,42167,20.19,73102.5,7.17,2.81,2.77,0,*73
1501077955.49,42168,20.19,73100.0,7.15,2.35,2.39,0,*7B
1501077956.69,42169,20.19,73100.0,7.15,2.35,2.35,0,*76
1501077957.95,42170,20.19,73098.8,7.15,2.47,2.51,0,*79
1501077959.19,42171,20.19,73102.5,7.17,2.51,2.51,0,*7D
1501077960.42,42172,20.19,73100.5,7.15,2.39,2.35,0,*70
1501077961.65,42173,20.19,73098.3,7.15,2.61,2.59,0,*76
1501077962.88,42174,20.19,73100.3,7.15,2.61,2.69,0,*72
1501077964.13,42175,20.19,73098.8,7.15,2.73,2.73,0,*7B
1501077965.34,42176,20.19,73100.8,7.15,2.61,2.61,0,*78
1501077966.6,42177,20.19,73098.8,7.15,2.59,2.51,0,*71
1501077967.86,42178,20.19,73102.8,7.15,2.73,2.77,0,*72
1501077969.09,42179,20.19,73098.3,7.17,3.11,3.03,0,*76
1501077970.32,42180,20.19,73098.0,7.17,3.11,3.03,0,*70
1501077971.5,42181,20.19,73096.3,7.17,2.99,2.99,0,*72
1501077972.67,42182,20.19,73094.8,7.17,2.99,2.91,0,*79
1501077973.93,42183,20.19,73098.0,7.15,2.77,2.77,0,*72
1501077975.14,42184,20.19,73096.3,7.15,2.61,2.61,0,*75
1501077976.37,42185,20.19,73096.0,7.19,2.65,2.73,0,*7F
1501077977.6,42186,20.19,73098.0,7.19,2.81,2.91,0,*7A
1501077978.82,42187,20.19,73094.8,7.19,3.03,2.99,0,*78
1501077980.08,42188,20.19,73096.3,7.19,2.77,2.89,0,*74
1501077981.28,42189,20.19,73098.0,7.19,2.91,2.91,0,*74
1501077982.5,42190,20.19,73092.5,7.19,2.99,3.03,0,*7E
1501077983.75,42191,20.19,73098.0,7.19,2.77,2.73,0,*79
1501077985.01,42192,20.19,73096.0,7.19,2.39,2.39,0,*7E
1501077986.21,42193,20.19,73096.3,7.17,2.55,2.65,0,*72
1501077987.42,42194,20.19,73098.8,7.17,2.65,2.77,0,*75
1501077988.65,42195,20.19,73096.0,7.19,2.27,2.39,0,*76
1501077989.9,42196,20.19,73096.0,7.19,2.39,2.55,0,*70
1501077991.15,42197,20.19,73098.8,7.19,2.81,2.89,0,*73
1501077992.39,42198,20.19,73096.5,7.19,2.51,2.61,0,*77
1501077993.62,42199,20.19,73096.5,7.15,2.35,2.39,0,*75
1501077994.85,42200,20.19,73098.3,7.15,2.47,2.65,0,*7A
1501077996.11,42201,20.19,73096.0,7.15,2.51,2.69,0,*70
1501077997.34,42202,20.19,73098.8,7.17,2.43,2.51,0,*79
1501077998.55,42203,20.19,73098.3,7.17,2.55,2.65,0,*78
1501077999.78,42204,20.19,73096.0,7.17,2.39,2.55,0,*76
1501078001.0,42205,20.19,73096.5,7.19,2.55,2.65,0,*70
1501078002.21,42206,20.19,73100.8,7.17,2.51,2.61,0,*7D
1501078003.42,42207,20.19,73096.0,7.17,2.61,2.73,0,*7C
1501078004.68,42208,20.19,73096.5,7.15,2.59,2.73,0,*7A
1501078005.88,42209,20.19,73102.3,7.17,2.55,2.65,0,*72
1501078007.09,42210,20.19,73100.0,7.17,2.65,2.77,0,*7A
1501078008.33,42211,20.19,73098.5,7.17,2.17,2.17,0,*78
1501078009.59,42212,20.19,73096.3,7.15,2.17,2.25,0,*78
1501078010.82,42213,20.19,73096.8,7.17,2.17,2.21,0,*7F
1501078012.07,42214,20.19,73102.5,7.15,2.39,2.47,0,*76
1501078013.31,42215,20.19,73096.0,7.15,2.59,2.61,0,*75
1501078014.56,42216,20.19,73102.3,7.15,2.69,2.77,0,*72
1501078015.83,42217,20.19,73104.5,7.15,2.17,2.17,0,*7C
1501078017.09,42218,20.19,73102.5,7.15,2.13,2.25,0,*76
1501078018.34,42219,20.19,73098.8,7.15,2.39,2.47,0,*7B
1501078019.54,42220,20.19,73100.8,7.13,2.09,2.27,0,*72
1501078020.74,42221,20.19,73098.8,7.13,2.35,2.47,0,*7A
1501078021.99,42222,20.19,73098.8,7.11,2.43,2.55,0,*79
1501078023.22,42223,20.19,73100.5,7.13,1.71,1.85,0,*76
1501078024.47,42224,20.19,73104.0,7.11,1.85,1.97,0,*7B
1501078025.69,42225,20.19,73102.5,7.11,2.25,2.31,0,*7C
1501078026.94,42226,20.19,73102.5,7.11,2.25,2.43,0,*7A
1501078028.17,42227,20.19,73102.5,7.09,2.17,2.21,0,*77
1501078029.39,42228,20.19,73100.8,7.09,1.59,1.67,0,*70
1501078030.62,42229,20.19,73102.5,7.09,1.85,2.05,0,*77
1501078031.84,42230,20.19,73100.5,7.07,2.21,2.27,0,*7C
1501078033.04,42231,20.19,73100.8,7.09,2.27,2.21,0,*73
1501078034.24,42232,20.19,73100.3,7.09,2.17,2.27,0,*75
1501078035.5,42233,20.19,73098.5,7.07,1.85,1.97,0,*7A
1501078036.72,42234,20.19,73100.8,7.05,2.05,2.13,0,*7B
1501078037.95,42235,20.19,73100.0,7.05,2.13,2.13,0,*7D
1501078039.18,42236,20.19,73102.5,7.05,2.05,2.13,0,*79
1501078040.41,42237,20.19,73100.0,7.05,1.93,2.01,0,*77
1501078041.64,42238,20.19,73102.0,7.05,1.93,2.05,0,*7C
1501078042.89,42239,20.19,73100.5,7.03,2.13,2.13,0,*77
1501078044.14,42240,20.19,73100.0,6.99,2.13,2.21,0,*7A
1501078045.37,42241,20.19,73102.5,6.99,1.79,1.85,0,*79
1501078046.59,42242,20.19,73102.8,6.97,1.93,1.93,0,*77
1501078047.84,42243,20.19,73102.5,6.99,2.21,2.25,0,*7C
1501078049.06,42244,20.19,73098.8,6.97,2.05,1.97,0,*79
1501078050.28,42245,20.19,73100.8,6.97,2.09,2.05,0,*7C
1501078051.51,42246,20.19,73100.8,6.97,2.09,2.09,0,*73
1501078052.76,42247,20.19,73100.8,6.99,2.25,2.05,0,*7E
1501078054.01,42248,20.19,73100.3,6.99,2.01,1.97,0,*7F
1501078055.23,42249,20.19,73100.5,6.97,1.55,1.59,0,*70
1501078056.47,42250,20.19,73098.3,6.95,1.59,1.67,0,*7B
1501078057.68,42251,20.19,73098.3,6.95,1.75,1.75,0,*77
1501078058.93,42252,20.19,73100.0,6.95,1.37,1.43,0,*77
1501078060.13,42253,20.19,73098.8,6.93,1.41,1.51,0,*72
1501078061.35,42254,20.19,73098.0,6.93,1.63,1.71,0,*77
1501078062.57,42255,20.19,73096.0,6.89,1.59,1.63,0,*77
1501078063.83,42256,20.19,73102.0,6.91,1.55,1.55,0,*74
1501078065.01,42257,20.19,73098.3,6.89,1.75,1.75,0,*7C
1501078066.24,42258,20.19,73098.3,6.89,2.01,2.01,0,*73
1501078067.48,42259,20.19,73100.5,6.89,2.09,2.13,0,*79
1501078068.7,42260,20.19,73098.5,6.89,2.25,2.21,0,*7C
1501078069.9,42261,20.19,73098.8,6.89,2.61,2.69,0,*71
1501078071.14,42262,20.19,73096.8,6.89,2.59,2.59,0,*7A
1501078072.34,42263,20.19,73100.0,6.89,2.61,2.69,0,*73
1501078073.57,42264,20.19,73098.0,6.89,2.59,2.69,0,*7F
1501078074.81,42265,20.19,73098.0,6.91,2.65,2.77,0,*77
1501078076.06,42266,20.19,73096.8,6.91,2.77,2.77,0,*77
1501078077.3,42267,20.19,73102.5,6.91,2.55,2.61,0,*71
1501078078.53,42268,20.19,73100.8,6.91,2.65,2.77,0,*7A
1501078079.74,42269,20.19,73098.3,6.93,2.61,2.73,0,*79
1501078080.96,42270,20.19,73100.0,6.93,2.69,2.73,0,*79
1501078082.17,42271,20.19,73102.5,6.93,2.65,2.73,0,*74
1501078083.39,42272,20.19,73100.8,6.93,2.77,2.77,0,*70
1501078084.61,42273,20.19,73096.5,6.93,2.85,2.85,0,*71
1501078085.79,42274,20.19,73096.8,6.93,2.61,2.65,0,*72
1501078087.01,42275,20.19,73100.0,6.93,2.73,2.73,0,*77
1501078088.26,42276,20.19,73098.3,6.95,2.77,2.77,0,*72
1501078089.47,42277,20.19,73102.3,6.93,2.55,2.65,0,*76
1501078090.72,42278,20.19,73102.3,6.95,2.59,2.69,0,*7F
1501078091.92,42279,20.19,73100.0,6.93,2.55,2.65,0,*78
1501078093.14,42280,20.19,73100.8,6.93,2.85,2.85,0,*7D
1501078094.39,42281,20.19,73100.3,6.95,3.11,3.11,0,*7A
1501078095.59,42282,20.19,73102.5,6.95,2.91,2.99,0,*71
1501078096.82,42283,20.19,73100.0,6.95,2.99,3.03,0,*7A
1501078098.02,42284,20.19,73102.0,6.95,2.91,2.91,0,*7F
1501078099.25,42285,20.19,73100.3,6.97,2.51,2.55,0,*78
1501078100.47,42286,20.19,73100.0,6.97,2.43,2.43,0,*7F
1501078101.7,42287,20.19,73100.3,6.97,2.59,2.59,0,*7E
1501078102.95,42288,20.19,73102.5,6.95,2.89,2.81,0,*7B
1501078104.21,42289,20.19,73100.0,6.95,2.81,2.81,0,*72
1501078105.46,42290,20.19,73100.8,6.95,2.89,2.89,0,*7A
1501078106.71,42291,20.19,73102.8,6.95,2.89,2.81,0,*73
1501078107.89,42292,20.19,73100.8,6.97,2.91,2.91,0,*7A
1501078109.09,42293,20.19,73102.8,6.97,2.91,2.89,0,*72
1501078110.3,42294,20.19,73104.8,6.97,2.91,2.89,0,*75
1501078111.5,42295,20.19,73100.8,6.99,2.35,2.35,0,*73
1501078112.71,42296,20.19,73102.8,6.97,2.21,2.21,0,*7E
1501078113.97,42297,20.19,73104.8,6.95,2.59,2.59,0,*7D
1501078115.2,42298,20.19,73106.0,6.95,2.91,2.89,0,*7B
1501078116.42,42299,20.19,73102.0,6.97,2.77,2.77,0,*71
1501078117.65,42300,20.19,73102.0,6.97,2.43,2.39,0,*7D
1501078118.87,42301,20.19,73106.3,6.97,2.77,2.69,0,*7E
1501078120.12,42302,20.19,73106.3,6.95,2.81,2.81,0,*70
1501078121.37,42303,20.19,73106.8,6.95,2.89,2.81,0,*79
1501078122.62,42304,20.19,73104.3,6.95,2.69,2.69,0,*76
1501078123.85,42305,20.19,73104.3,6.97,2.43,2.39,0,*78
1501078125.04,42306,20.19,73102.0,6.97,2.21,2.27,0,*70
1501078126.27,42307,20.19,73104.3,6.97,2.51,2.51,0,*77
1501078127.5,42308,20.19,73106.8,6.97,2.43,2.43,0,*78
1501078128.73,42309,20.19,73106.0,6.97,2.51,2.59,0,*71
1501078129.93,42310,20.19,73102.0,6.93,2.61,2.55,0,*72
1501078131.18,42311,20.19,73104.8,6.95,2.51,2.55,0,*76
1501078132.4,42312,20.19,73104.3,6.95,2.65,2.55,0,*72
1501078133.63,42313,20.19,73106.0,6.95,2.65,2.69,0,*7C
1501078134.86,42314,20.19,73104.3,6.95,2.65,2.69,0,*7B
1501078136.11,42315,20.19,73104.3,6.95,2.81,2.81,0,*76